Location: Baix
(44.7118°N, 4.7648°E)
Time: 18:04:06
(UTC+00:00)

ARIANE 5 R/B - Pass Details

Date: 07 August 2020
Orbit: 749 x 795 km, 98.6° (Epoch: 23 September)

Event Time Altitude Azimuth Distance (km) Brightness Sun altitude
Rises 02:07:19 0° 19° (NNE) 3,296 7.1 -21.1°
Reaches altitude 10° 02:09:44 10° 25° (NNE) 2,367 6.2 -20.8°
Maximum altitude 02:14:48 48° 99° (E) 1,028 3.3 -20.3°
Enters shadow 02:18:00 22° 165° (SSE) 1,697 3.9 -19.9°
